カタログに戻る

STARLINK-37760

運用中通信SSO
NORAD 69222·PAYLOAD·🇺🇸 United States

打ち上げ May 26, 2026 から Vandenberg Space Force Base

Loading…

次のパス (今後24時間)

TLE

最新Source: CelesTrak SupGP

元期: Sep 14, 2026, 14:49 UTC

1 69222C 26115M   26257.61784722 -.00037110  00000+0 -11520-2 0  2576
2 69222  97.2835 273.7980 0001527 100.8004  89.9552 15.33458022    13

AllMySatでSTARLINK-37760をリアルタイム追跡

Download on the App Store